SL-8 DEB, 1480

Orbit data source: Space-Track

SL-8 DEB, 1480 is space debris in LEO originally from a launch on Mon, 15 Mar 1965 UTC launched from the Tyuratam Missile And Space Complex (TTMTR). Debris objects in space refer to the collection of defunct objects orbiting the Earth. Examples of debris include non-operational satellites, rocket bodies, and fragments generated from explosions, collisions, or faulty payload assembly.

Loading next visibility...
Identifier
1480, 1965-020BE
Orbit
LEO
Country
Flag of CISCIS
Related business
Manufacturer
Unknown
Mission
Spacecraft
Bus & Motor
Unknown
Mass
Unknown
Launch date (UTC)
1965-03-15 (61 years ago)
Launch vehicle
Unknown
Launch site
Tyuratam Missile And Space Complex (TTMTR)
Object type
Payload
Rocket body
Debris
Shape & HBR
Unknown shape, 0.1 m
Radar Cross Section
Medium (>0.1 m² and <1 m²)

Expand to show TLE details & history
Last TLE update: 12 hours ago

TLE from 12 hours ago
0 SL-8 DEB
1 01480U 65020BE  25286.93852143  .00000090  00000-0  26531-3 0  9993
2 01480  56.0683 308.4320 0836434  98.4221 271.2298 12.64325296778976
Epoch: 2025-10-13T22:31Z
TLE epoch observation values (Epoch: 2025-10-13T22:31:28.251Z)
Latitude
-0.00002°
Longitude
-52.16985°
Altitude
1,446.573 km
Speed
7.121 km/s
True Right ascension
20h 33m 43s
True Declination
0° 00' 00"
Sunlit
Object was in daylight at epoch
Visualization orbit readout
Latitude
Unknown
Longitude
Unknown
Altitude
Unknown
Speed
Unknown
Apparent Right ascension
Unknown
Apparent Declination
Unknown
Sunlit
N/A
Visualization observer readout
Local Sidereal Time
04:43:02
Azimuth
Unknown
Elevation
Unknown
Doppler factor
Unknown
Orbital elements
Apogee altitude
2,055.965 km
Perigee altitude
753.956 km
Semi-major axis
7,783.098 km
Eccentricity
0.08364
Inclination
56.0683°
RAAN
308.432°
Arg. of periapsis
98.4221°
True anomaly
261.67018°
Mean anomaly
271.2298°
Eccentric anomaly
266.4466°
Mean motion
3.16093 °/min
Orbital period
113.89 mins
BSTAR
0.00026531
Loading maneuver chart data...
Computing Atmospheric mass density...
Loading historical data...
Loading historical data...
Loading historical data...
Loading historical data...
Loading historical data...
Loading historical data...
Loading historical data...

Documentation

Showing up to 5 results
|